CW8014 Weather Reports


time (UTC)temp
C
wind
direction
speed
KPH
gust
KPH
rain 1hr
cm
rain 24hr
cm
rain mn
cm
humidity
%
barometer
mb
20260906185411 17 112 1.6 4.8 0.00 0.00 0.00 77 1023.4
20260906122407 22 277 3.2 6.4 0.00 0.00 0.00 57 1026.0
20260906121406 22 213 6.4 11.3 0.00 0.00 0.00 57 1026.1
20260906120407 22 202 6.4 14.5 0.00 0.00 0.00 58 1026.2
20260906115406 21 157 4.8 9.7 0.00 0.00 0.00 61 1026.4
20260906113402 21 272 9.7 17.7 0.00 0.00 0.00 60 1026.7
20260906112401 20 257 4.8 11.3 0.00 0.00 0.00 63 1026.8
20260906111401 20 244 6.4 14.5 0.00 0.00 0.00 63 1027.0
20260906110401 20 205 4.8 14.5 0.00 0.00 0.00 64 1027.0
20260906105407 19 138 3.2 11.3 0.00 0.00 0.00 65 1027.0
20260906104406 19 256 4.8 12.9 0.00 0.00 0.00 65 1027.0
20260906103406 19 180 8.0 12.9 0.00 0.00 0.00 66 1027.0
20260906102406 18 299 3.2 6.4 0.00 0.00 0.00 68 1027.1
20260906100406 18 163 6.4 12.9 0.00 0.00 0.00 68 1027.3
20260906095407 18 188 3.2 9.7 0.00 0.00 0.00 69 1027.4
20260906094406 18 235 4.8 11.3 0.00 0.00 0.00 72 1027.4
20260906093406 17 201 6.4 14.5 0.00 0.00 0.00 72 1027.5
20260906091406 17 209 4.8 14.5 0.00 0.00 0.00 75 1027.5
20260906090406 16 275 3.2 6.4 0.00 0.00 0.00 76 1027.6
20260906085406 16 265 3.2 4.8 0.00 0.00 0.00 79 1027.6
20260906084406 16 232 3.2 11.3 0.00 0.00 0.00 81 1027.6
20260906083406 16 176 1.6 8.0 0.00 0.00 0.00 82 1027.6
20260906082407 15 234 3.2 8.0 0.00 0.00 0.00 83 1027.5